Buffalo, WY

4:19 PM MDT on August 31, 2016 (GMT -0600)
Johnson County

Weather History for KBYG - August, 2013

Change the Weather History Date:

Thursday, August 22, 2013

  Actual Average Record
Temperature  
Mean Temperature 76 °F 69 °F  
Max Temperature 87 °F 83 °F 96 °F (2006)
Min Temperature 64 °F 54 °F 40 °F (2015)
Degree Days  
Heating Degree Days 0 1  
Month to date heating degree days 0 22  
Since 1 June heating degree days 101 210  
Since 1 July heating degree days 1 47  
Cooling Degree Days 11 5  
Month to date cooling degree days 168 146  
Year to date cooling degree days 513 407  
Since 1 June cooling degree days 503 400  
Growing Degree Days 26 (Base 50)    
Moisture  
Dew Point 52 °F    
Average Humidity 45    
Maximum Humidity 61    
Minimum Humidity 29    
Precipitation  
Precipitation 0.01 in 0.03 in 0.46 in (2014)
Month to date precipitation 0.22 0.65  
Year to date precipitation 4.41 10.11  
Sea Level Pressure  
Sea Level Pressure 30.00 in    
Wind  
Wind Speed 7 mph (SSW)    
Max Wind Speed 17 mph    
Max Gust Speed 21 mph    
Visibility 10 miles    
Events Rain , Thunderstorm    
T = Trace of Precipitation, MM = Missing Value Source: NWS Daily Summary

Daily Weather History Graph

Daily Weather History Graph

Search for Another Location

Airport or City:

Trip Planner

Search our weather history database for the weather conditions in past years. The results will help you decide how hot, cold, wet, or windy it might be!

Date:

Astronomy

Aug. 22, 2013 Rise Set
Actual Time 6:18 AM MDT 8:00 PM MDT
Civil Twilight 5:47 AM MDT 8:30 PM MDT
Nautical Twilight 5:10 AM MDT 9:08 PM MDT
Astronomical Twilight 4:29 AM MDT 9:48 PM MDT
Moon 8:37 PM MDT (8/22) 8:16 AM MDT (8/22)
Length of Visible Light 14h 43m
Length of Day
13h 41m
Waning Gibbous, 96% of the Moon is Illuminated
Aug 22
Waning Gibbous
Aug 28
Last Quarter
Sep 5
New
Sep 12
First Quarter
Sep 19
Full

Hourly Weather History & Observations

Time (MDT) Temp. Heat Index Dew Point Humidity Pressure Visibility Wind Dir Wind Speed Gust Speed Precip Events Conditions
12:53 AM 69.1 °F - 48.9 °F 49% 30.03 in 10.0 mi WNW 3.5 mph - N/A   Clear
1:53 AM 69.1 °F - 46.9 °F 45% 30.03 in 10.0 mi WNW 5.8 mph - N/A   Partly Cloudy
2:53 AM 68.0 °F - 48.0 °F 49% 30.02 in 10.0 mi WNW 5.8 mph - N/A   Clear
3:53 AM 64.9 °F - 48.0 °F 54% 30.02 in 10.0 mi North 3.5 mph - N/A   Clear
4:53 AM 66.9 °F - 48.9 °F 52% 30.02 in 10.0 mi NW 5.8 mph - N/A   Scattered Clouds
5:32 AM 68.0 °F - 50.0 °F 52% 30.20 in 10.0 mi WNW 9.2 mph - 0.00 in Thunderstorm Overcast
5:53 AM 66.9 °F - 53.1 °F 61% 30.02 in 10.0 mi West 8.1 mph - 0.00 in Rain Light Rain
6:53 AM 66.0 °F - 52.0 °F 60% 30.04 in 10.0 mi Calm Calm - 0.00 in   Scattered Clouds
7:53 AM 66.0 °F - 52.0 °F 60% 30.07 in 10.0 mi ESE 4.6 mph - N/A   Overcast
8:53 AM 68.0 °F - 53.1 °F 59% 30.08 in 10.0 mi West 6.9 mph - 0.00 in Rain Light Rain
9:53 AM 72.0 °F - 57.9 °F 61% 30.08 in 10.0 mi SW 3.5 mph - 0.01 in Rain Light Rain
10:16 AM 71.6 °F - 57.2 °F 60% 30.24 in 10.0 mi SSW 3.5 mph - 0.00 in Rain , Thunderstorm Light Rain
10:31 AM 73.4 °F - 55.4 °F 53% 30.24 in 10.0 mi SE 8.1 mph - 0.00 in   Overcast
10:53 AM 70.0 °F - 57.0 °F 63% 30.07 in 10.0 mi SE 12.7 mph 19.6 mph 0.00 in   Mostly Cloudy
11:53 AM 72.0 °F - 54.0 °F 53% 30.04 in 10.0 mi SSE 5.8 mph - N/A   Overcast
12:53 PM 80.1 °F 80.0 °F 54.0 °F 40% 30.00 in 10.0 mi SSE 10.4 mph - N/A   Scattered Clouds
1:53 PM 79.0 °F - 54.0 °F 42% 29.99 in 10.0 mi SE 12.7 mph - N/A   Mostly Cloudy
2:53 PM 81.0 °F 80.4 °F 53.1 °F 38% 29.96 in 10.0 mi South 15.0 mph - N/A   Clear
3:53 PM 84.0 °F - 52.0 °F 33% 29.93 in 10.0 mi SSE 12.7 mph - N/A   Clear
4:53 PM 87.1 °F - 48.9 °F 27% 29.88 in 10.0 mi SSE 9.2 mph 18.4 mph N/A   Clear
5:53 PM 84.9 °F - 48.0 °F 28% 29.86 in 10.0 mi SSE 9.2 mph - N/A   Clear
6:53 PM 82.0 °F - 48.9 °F 31% 29.87 in 10.0 mi SSE 6.9 mph - N/A   Clear
7:53 PM 79.0 °F - 48.9 °F 35% 29.87 in 10.0 mi Calm Calm - N/A   Partly Cloudy
8:53 PM 77.0 °F - 48.9 °F 37% 29.89 in 10.0 mi North 9.2 mph - N/A   Mostly Cloudy
9:53 PM 73.0 °F - 52.0 °F 48% 29.90 in 10.0 mi SW 5.8 mph - N/A   Partly Cloudy
10:53 PM 71.1 °F - 52.0 °F 51% 29.90 in 10.0 mi SSE 9.2 mph - 0.00 in   Clear
11:53 PM 72.0 °F - 52.0 °F 49% 29.87 in 10.0 mi SSW 5.8 mph - N/A   Clear